Temp
62 62 60 60 58 59 58 58 59 60 61 61 61 60 60 61 61 60 58 59 59 58 58 57 57 58 55 55 54 54 51 51 48 50 50 50 49 49 49 49 50 50 51
63 62 61 59 57 60 60 60 61 61 61 61 61 60 61 60 61 59 60 60 57 57 58 56 56 59 55 55 54 53 53 53 50 47 48 47 47 48 47 47 48 49 49
62 60 58 51 55 54 58 59 59 59 59 60 60 60 59 58 59 59 59 58 59 58 58 56 56 55 54 54 54 53 53 52 50 49 46 48 48 48 47 47 47 47 48
63 62 59 57 57 56 57 58 58 59 59 59 59 59 58 57 58 58 58 56 57 58 57 57 57 56 54 53 53 52 52 50 49 48 47 47 47 47 47 45 44 45 44
60 60 59 58 56 57 56 56 55 55 57 59 57 56 56 55 53 51 52 54 55 55 57 58 56 58 58 55 52 52 51 49 48 48 47 47 47 46 45 45 43 43 46
60 60 61 58 56 56 55 54 52 53 56 56 55 55 54 53 48 48 49 51 53 54 53 55 56 58 56 55 55 54 52 48 47 48 47 47 46 46 47 46 45 43 42
58 58 59 58 56 56 56 56 54 52 53 52 52 52 50 51 47 46 48 51 53 53 53 53 54 56 53 53 53 53 53 52 51 49 48 47 47 48 47 44 43 42 41
58 58 58 58 56 53 53 51 51 51 50 49 50 50 49 50 47 45 46 53 54 54 52 51 51 52 49 49 51 49 48 49 50 51 50 49 49 48 47 46 45 44 44
57 55 56 56 54 52 49 48 48 48 47 47 47 47 48 49 45 45 47 52 52 51 51 49 48 47 45 47 49 47 48 48 50 49 48 46 46 46 49 48 47 45 45
54 54 56 54 51 49 48 48 48 48 47 47 47 50 50 49 44 44 46 54 50 49 47 46 46 44 43 44 49 48 46 47 49 50 49 49 50 49 49 49 49 43 44
57 55 54 54 52 50 48 48 48 48 49 49 49 49 47 46 47 44 44 50 47 46 45 45 45 43 43 43 45 49 47 49 51 50 49 50 49 49 50 50 50 50 49
54 53 53 52 50 49 48 48 50 51 49 48 47 46 47 47 46 44 43 44 47 46 45 46 47 43 43 43 47 43 44 48 52 47 47 48 49 49 52 52 52 53 53
51 51 52 50 50 52 50 51 49 49 47 47 46 45 45 47 48 46 44 45 46 47 47 46 45 45 45 47 44 44 48 47 47 46 45 46 48 50 52 53 53 54 54
51 49 51 50 51 51 53 51 47 45 45 45 45 45 46 46 46 49 51 50 48 50 49 52 49 47 46 47 48 48 47 47 48 49 50 52 53 51 51 54 52 52 51
49 50 52 51 49 49 48 46 49 46 44 46 46 48 47 45 44 42 46 50 51 48 52 52 50 49 49 50 50 49 50 50 50 51 51 52 55 55 55 57 56 55 54
49 52 51 52 53 50 49 48 42 41 41 40 40 44 48 42 42 41 42 42 44 45 50 50 49 50 50 51 52 54 56 54 57 57 57 57 57 57 57 59 59 56 54
52 52 51 50 52 49 48 47 45 47 42 42 41 40 40 42 42 43 42 43 44 44 56 55 53 54 54 54 54 56 55 56 58 59 58 58 59 59 58 57 58 57 56
51 47 54 53 51 49 49 48 49 49 49 50 47 45 42 41 42 43 43 44 53 53 57 55 56 57 58 59 60 60 60 60 60 58 59 58 58 59 58 57 57 57 56
52 51 51 49 49 48 49 50 52 54 54 55 56 49 49 46 43 42 42 54 55 55 56 57 58 60 59 58 60 61 58 59 56 59 61 60 61 60 57 58 58 51 50
50 45 49 55 55 56 58 57 56 58 60 60 57 53 54 50 54 56 59 58 61 63 63 63 62 62 63 62 60 60 60 59 60 60 60 61 60 61 61 60 59 59 59
52 53 46 59 60 61 58 57 57 57 57 58 57 54 40 58 59 59 61 64 63 63 62 64 66 66 66 63 63 62 62 62 62 61 61 61 62 61 62 62 61 60 59
54 52 58 60 61 57 57 58 60 60 61 61 61 60 44 63 64 65 64 64 66 65 64 63 63 63 63 63 61 59 57 57 59 59 63 63 63 64 63 62 61 59 58
55 58 61 65 65 56 60 61 66 68 67 67 67 67 67 65 65 65 64 64 64 64 65 63 61 60 60 60 59 60 54 51 56 58 58 63 63 62 62 61 61 60 59
61 65 65 65 66 68 66 66 68 60 67 68 66 66 66 65 65 64 65 65 64 63 62 61 60 59 56 55 56 56 51 45 54 54 57 63 63 62 63 62 62 61 61
66 63 61 63 65 64 67 68 68 67 67 67 67 66 66 66 65 65 65 65 64 63 62 60 57 56 56 53 50 49 40 36 45 39 54 63 63 61 62 63 62 62 61
62 63 65 66 67 69 68 67 67 67 66 66 66 65 66 66 65 65 64 64 63 62 61 60 57 54 52 51 46 38 36 36 41 38 46 64 62 61 61 61 62 62 61
MSLP
1020.57 1020.23 1019.94 1019.80 1019.76 1019.29 1018.90 1018.90 1018.60 1018.27 1018.12 1017.80 1017.54 1017.24 1017.18 1017.11 1017.17 1017.31 1017.45 1017.41 1017.31 1017.33 1017.31 1017.29 1017.09 1017.05 1017.11 1017.02 1016.83 1016.69 1016.61 1016.59 1016.54 1016.37 1016.54 1016.59 1016.54 1016.48 1016.34 1015.94 1015.59 1015.16 1014.73
1020.43 1020.15 1020.04 1020.07 1019.43 1019.33 1018.90 1018.76 1018.44 1018.22 1017.98 1017.77 1017.47 1017.34 1017.20 1017.19 1017.28 1017.39 1017.32 1017.28 1017.28 1017.13 1017.03 1017.08 1017.09 1016.95 1017.13 1017.04 1016.93 1016.90 1016.63 1016.50 1016.63 1016.52 1016.44 1016.66 1016.74 1016.78 1016.69 1016.36 1016.04 1015.64 1015.25
1020.34 1020.18 1020.01 1020.42 1019.99 1020.26 1019.38 1018.91 1018.78 1018.42 1018.11 1017.91 1017.81 1017.53 1017.46 1017.52 1017.60 1017.45 1017.48 1017.39 1017.30 1017.17 1017.02 1016.99 1017.04 1017.03 1017.03 1016.92 1016.97 1016.90 1016.57 1016.60 1016.62 1016.25 1016.54 1016.67 1016.81 1016.81 1016.72 1016.61 1016.42 1016.11 1015.78
1020.35 1020.14 1019.86 1019.82 1019.89 1019.69 1019.51 1019.07 1018.87 1018.60 1018.29 1018.26 1018.19 1018.03 1017.98 1017.98 1018.16 1018.15 1018.03 1017.87 1017.53 1017.25 1017.13 1017.08 1016.99 1016.91 1016.97 1017.03 1016.97 1016.85 1016.69 1016.74 1016.64 1016.60 1016.73 1016.75 1016.82 1016.84 1016.78 1016.78 1016.75 1016.55 1016.20
1020.74 1020.38 1020.01 1019.89 1019.62 1019.66 1019.55 1019.27 1019.42 1019.36 1018.93 1018.55 1018.61 1018.68 1018.52 1018.67 1019.27 1019.19 1018.82 1018.37 1017.88 1017.46 1017.18 1017.08 1017.00 1016.94 1016.99 1016.97 1017.00 1016.89 1016.84 1016.87 1016.74 1016.76 1016.83 1016.79 1016.74 1016.74 1016.76 1016.81 1016.88 1016.75 1016.56
1020.77 1020.36 1019.98 1020.03 1020.09 1020.12 1019.94 1019.76 1019.85 1019.59 1019.28 1019.13 1019.13 1019.21 1019.22 1019.53 1019.60 1019.37 1019.17 1018.71 1018.08 1017.63 1017.41 1017.17 1017.11 1016.99 1016.98 1016.98 1016.88 1016.82 1016.81 1016.90 1016.86 1016.81 1016.88 1016.83 1016.87 1016.86 1016.75 1016.68 1016.66 1016.81 1016.94
1020.80 1020.51 1020.31 1020.36 1020.43 1020.19 1020.12 1020.00 1020.07 1020.11 1019.93 1019.88 1019.88 1019.94 1019.93 1019.86 1019.87 1019.57 1019.10 1018.57 1018.02 1017.69 1017.47 1017.54 1017.41 1017.26 1017.25 1017.17 1016.98 1016.79 1016.78 1016.91 1017.04 1016.99 1016.97 1017.00 1016.98 1016.98 1016.97 1017.11 1017.21 1017.24 1017.47
1021.10 1020.97 1020.90 1020.71 1020.77 1020.87 1020.77 1020.82 1020.78 1020.76 1020.60 1020.57 1020.49 1020.36 1020.24 1020.12 1019.97 1019.37 1018.64 1018.20 1017.91 1017.85 1018.08 1018.24 1018.07 1017.77 1017.78 1017.57 1017.30 1017.29 1017.24 1017.11 1017.09 1017.12 1017.21 1017.38 1017.30 1017.29 1017.27 1017.41 1017.51 1017.56 1017.39
1021.46 1021.52 1021.47 1021.41 1021.40 1021.55 1021.67 1021.59 1021.40 1021.19 1021.11 1020.97 1020.77 1020.57 1020.43 1020.29 1020.05 1019.48 1018.72 1018.27 1018.34 1018.53 1018.80 1018.82 1018.58 1018.38 1018.16 1017.83 1017.71 1017.65 1017.66 1017.74 1017.67 1017.65 1017.67 1017.72 1017.66 1017.54 1017.44 1017.47 1017.37 1017.24 1017.15
1022.19 1022.09 1021.92 1022.14 1022.38 1022.25 1022.19 1022.05 1021.88 1021.59 1021.38 1021.14 1020.87 1020.68 1020.53 1020.36 1020.32 1019.91 1019.33 1018.98 1019.10 1019.24 1019.20 1019.15 1019.02 1018.80 1018.51 1018.28 1018.21 1018.18 1018.20 1018.21 1018.01 1018.00 1018.01 1017.85 1017.65 1017.63 1017.48 1017.33 1017.24 1017.26 1017.11
1022.31 1022.60 1022.66 1022.59 1022.61 1022.63 1022.65 1022.46 1022.13 1021.86 1021.51 1021.13 1020.75 1020.79 1020.91 1020.88 1020.65 1020.39 1020.01 1019.86 1019.83 1019.73 1019.73 1019.68 1019.52 1019.26 1019.04 1018.89 1018.76 1018.65 1018.65 1018.52 1018.34 1018.25 1018.27 1018.09 1017.98 1017.80 1017.61 1017.41 1017.26 1017.22 1016.76
1023.39 1023.19 1023.15 1023.18 1023.21 1023.19 1022.97 1022.74 1022.24 1021.80 1021.44 1021.38 1021.35 1021.29 1021.20 1021.13 1021.01 1020.79 1020.54 1020.34 1020.24 1020.12 1020.15 1020.09 1020.00 1019.77 1019.54 1019.35 1019.16 1019.05 1018.93 1018.76 1018.70 1018.83 1018.63 1018.37 1018.25 1017.93 1017.47 1017.18 1017.02 1016.82 1016.55
1024.11 1023.91 1023.77 1023.79 1023.58 1023.34 1023.10 1022.83 1022.66 1022.44 1022.28 1022.22 1022.08 1021.91 1021.78 1021.67 1021.44 1021.16 1020.98 1020.76 1020.60 1020.52 1020.41 1020.30 1020.10 1019.99 1019.99 1019.79 1019.59 1019.34 1019.16 1019.19 1019.15 1018.93 1018.77 1018.57 1018.38 1018.02 1017.59 1017.26 1017.13 1016.85 1016.58
1024.61 1024.61 1024.41 1024.21 1023.83 1023.70 1023.43 1023.50 1023.64 1023.51 1023.33 1023.12 1022.76 1022.54 1022.40 1022.19 1021.99 1021.54 1021.12 1020.87 1020.73 1020.55 1020.49 1020.38 1020.39 1020.35 1020.15 1020.02 1019.82 1019.67 1019.51 1019.41 1019.17 1018.84 1018.53 1017.95 1017.60 1017.54 1017.21 1016.98 1016.98 1016.72 1016.57
1025.22 1025.04 1024.59 1024.59 1024.49 1024.45 1024.57 1024.66 1024.37 1024.52 1024.33 1023.89 1023.62 1023.24 1023.01 1022.80 1022.75 1022.35 1021.70 1021.28 1020.81 1020.56 1020.34 1020.22 1020.23 1020.31 1020.25 1019.94 1019.66 1019.59 1019.35 1019.10 1018.80 1018.47 1018.16 1017.65 1017.10 1016.71 1016.48 1016.23 1016.22 1016.24 1016.17
1025.55 1025.22 1025.05 1024.67 1024.50 1024.64 1024.67 1024.87 1024.95 1024.76 1024.50 1024.28 1024.02 1023.62 1023.53 1023.04 1022.78 1022.51 1022.12 1021.44 1020.94 1020.78 1020.77 1020.68 1020.57 1020.44 1020.27 1019.93 1019.45 1018.89 1018.48 1018.36 1017.84 1017.57 1017.29 1017.01 1016.82 1016.59 1016.35 1016.07 1015.87 1016.20 1016.18
1025.80 1025.54 1025.34 1025.06 1024.89 1024.91 1024.84 1024.79 1024.79 1024.58 1024.54 1024.44 1024.15 1023.76 1023.33 1022.59 1022.63 1022.48 1022.18 1021.84 1021.16 1020.93 1020.50 1020.19 1020.04 1019.79 1019.50 1019.29 1018.97 1018.65 1018.39 1018.05 1017.67 1017.52 1017.33 1017.13 1016.89 1016.70 1016.49 1016.30 1016.17 1016.06 1016.05
1026.25 1026.13 1025.68 1025.73 1025.66 1025.53 1025.17 1024.96 1024.85 1024.60 1024.44 1024.69 1024.47 1024.19 1024.09 1023.92 1023.67 1023.44 1023.14 1022.69 1021.66 1020.95 1020.48 1020.21 1019.93 1019.71 1019.50 1019.17 1018.82 1018.66 1018.39 1018.22 1017.95 1017.65 1017.41 1017.23 1016.98 1016.78 1016.68 1016.50 1016.20 1016.03 1015.89
1026.63 1026.73 1026.72 1026.55 1026.32 1025.86 1025.20 1025.10 1024.66 1024.37 1024.25 1024.26 1024.30 1024.29 1023.54 1023.38 1023.32 1022.98 1022.72 1022.31 1021.59 1021.35 1020.55 1020.18 1019.83 1019.63 1019.38 1019.17 1018.92 1018.74 1018.60 1018.36 1018.13 1017.73 1017.34 1017.10 1016.74 1016.52 1016.52 1016.35 1016.10 1015.79 1015.73
1027.11 1027.11 1026.86 1026.42 1026.17 1025.73 1025.05 1024.55 1024.27 1024.09 1023.77 1023.66 1023.74 1023.85 1023.71 1023.58 1023.38 1022.96 1022.37 1021.87 1021.41 1021.02 1020.45 1019.98 1019.97 1019.81 1019.70 1019.51 1019.14 1018.80 1018.71 1018.61 1018.28 1017.76 1017.37 1017.00 1016.63 1016.28 1016.21 1015.85 1015.89 1015.73 1015.66
1027.13 1027.15 1026.95 1026.25 1025.87 1025.40 1024.87 1024.58 1024.36 1024.15 1023.91 1023.71 1023.64 1023.49 1023.29 1023.13 1023.01 1022.76 1022.46 1022.09 1021.84 1021.69 1021.45 1020.94 1020.74 1020.66 1020.54 1020.45 1020.19 1019.96 1019.84 1019.36 1018.89 1018.28 1017.71 1017.30 1016.95 1016.55 1016.16 1016.03 1016.05 1016.21 1015.99
1027.27 1027.14 1026.70 1026.19 1025.79 1025.28 1025.03 1024.67 1024.32 1024.02 1023.74 1023.58 1023.48 1023.42 1023.30 1023.15 1023.16 1023.11 1023.01 1022.86 1022.56 1022.52 1022.43 1022.33 1022.26 1022.22 1022.02 1021.71 1021.50 1021.32 1021.19 1020.88 1020.22 1019.52 1018.55 1017.88 1017.52 1017.05 1016.74 1016.62 1016.52 1016.44 1016.38
1027.18 1026.95 1026.49 1025.83 1025.30 1024.92 1024.71 1024.52 1024.11 1023.67 1023.72 1023.69 1023.74 1023.78 1023.88 1023.91 1023.78 1023.72 1023.70 1023.71 1023.63 1023.57 1023.44 1023.51 1023.58 1023.53 1023.42 1023.04 1022.76 1022.43 1022.57 1022.29 1021.33 1020.43 1019.67 1018.58 1018.07 1017.70 1017.32 1017.14 1017.02 1016.91 1016.70
1026.52 1026.27 1026.11 1026.09 1025.54 1024.85 1024.58 1024.37 1024.30 1024.37 1024.23 1024.32 1024.42 1024.49 1024.52 1024.50 1024.45 1024.42 1024.33 1024.24 1024.36 1024.52 1024.65 1024.67 1024.52 1024.52 1024.50 1024.26 1023.87 1023.49 1023.47 1023.24 1021.94 1021.09 1020.15 1019.14 1018.80 1018.46 1017.98 1017.73 1017.40 1017.21 1017.20
1026.60 1026.72 1026.78 1026.55 1025.88 1025.41 1024.98 1024.95 1025.01 1024.99 1024.98 1025.00 1025.05 1025.10 1025.19 1025.22 1025.20 1025.13 1024.97 1024.87 1024.99 1024.96 1025.21 1025.51 1025.79 1025.66 1025.33 1025.21 1024.92 1024.38 1023.85 1022.95 1022.10 1021.61 1020.58 1019.55 1019.40 1019.16 1018.88 1018.38 1018.08 1017.69 1017.45
1026.90 1026.93 1026.79 1026.54 1025.97 1025.57 1025.52 1025.58 1025.60 1025.64 1025.74 1025.86 1025.94 1025.96 1025.97 1026.02 1026.05 1025.97 1025.85 1025.69 1025.69 1025.84 1025.99 1026.10 1026.45 1026.60 1026.30 1026.01 1025.79 1025.13 1024.31 1023.47 1022.64 1021.74 1021.18 1020.13 1020.08 1019.88 1019.66 1019.18 1018.75 1018.44 1018.11
Wind_Speed
8 9 8 8 9 10 6 9 9 7 7 7 8 9 6 4 2 2 4 5 5 4 4 6 5 3 3 4 4 2 3 2 4 0 1 3 4 5 5 6 7 8 7
9 9 11 12 6 6 8 7 7 6 7 6 7 7 5 3 3 2 3 4 6 6 5 4 6 4 4 4 6 8 3 4 3 7 1 1 3 3 4 5 5 6 6
7 4 6 7 10 15 9 7 9 7 7 7 7 7 6 7 3 5 6 6 6 6 5 5 5 4 4 3 3 5 5 3 3 2 2 0 1 1 1 2 5 5 6
9 10 11 8 9 8 10 8 8 8 8 8 7 8 7 3 9 11 9 8 8 7 6 5 4 4 5 5 5 5 4 3 3 2 1 1 0 0 1 2 3 4 5
11 11 11 7 10 10 8 9 11 11 8 7 9 10 10 10 9 9 9 9 9 8 5 4 5 8 1 3 2 4 5 3 3 1 1 1 1 2 1 0 2 1 4
10 9 10 11 10 9 7 8 6 6 9 8 10 10 8 7 11 13 10 7 9 6 5 5 5 4 8 1 6 5 5 2 2 1 1 1 2 2 3 2 1 1 3
8 9 11 10 9 7 7 8 11 10 9 9 10 9 8 7 11 11 12 6 6 5 5 7 7 7 8 7 7 5 8 3 1 2 2 3 2 4 4 4 5 4 1
9 9 10 10 11 11 9 9 10 9 9 8 8 7 6 5 11 13 15 4 4 7 9 8 7 7 7 6 4 7 6 5 4 4 4 4 4 5 5 2 3 3 3
11 9 11 9 10 12 11 9 7 6 6 6 5 5 6 5 11 14 13 4 7 10 9 8 8 6 9 8 5 5 5 6 8 11 9 7 8 7 2 0 1 2 2
8 6 9 12 10 9 7 8 7 6 5 3 4 4 3 6 12 13 12 7 8 6 6 7 11 8 8 9 5 4 5 4 3 5 4 5 5 5 6 3 2 1 2
8 11 11 11 9 9 6 6 6 5 4 3 4 4 6 7 7 11 11 6 4 4 5 5 5 10 9 9 8 4 3 0 3 4 3 3 3 3 1 0 2 3 4
10 9 11 9 7 6 7 6 5 5 5 8 8 5 4 6 9 8 9 9 7 4 3 3 3 7 13 13 7 2 1 4 5 5 4 4 4 3 3 3 4 4 3
11 10 9 8 6 6 6 7 7 9 8 7 6 6 6 6 5 9 8 7 8 4 3 4 7 7 10 9 13 13 11 7 5 4 2 1 2 3 5 2 1 1 2
9 8 8 8 9 9 7 8 7 7 6 6 5 5 5 5 6 6 3 1 1 1 3 2 3 5 8 5 5 5 3 3 2 1 2 4 4 3 4 4 3 3 3
7 7 6 4 6 7 7 6 6 6 4 5 5 5 5 5 4 4 5 4 4 6 5 4 3 3 3 1 2 3 3 3 4 4 5 5 2 2 2 3 4 3 3
6 5 5 4 3 2 2 3 6 4 6 7 6 4 4 2 4 7 5 5 7 3 3 3 2 2 2 1 1 2 3 6 3 3 2 1 2 2 1 2 1 2 1
8 8 5 5 6 7 6 5 5 3 1 8 8 7 3 4 2 4 3 1 7 7 1 2 2 2 2 2 2 2 3 3 4 4 3 4 4 3 2 2 2 2 2
5 8 8 8 8 6 4 4 3 4 6 7 7 7 12 12 11 9 9 7 4 3 3 4 4 4 4 4 3 3 2 3 3 2 2 3 3 3 4 4 3 2 2
6 6 6 4 3 2 4 3 3 2 4 4 6 3 3 9 11 12 8 2 3 3 3 4 3 3 2 2 3 3 2 3 3 4 3 3 4 3 1 3 4 6 2
5 7 6 4 4 3 1 2 2 1 3 5 5 2 1 2 2 3 4 4 5 7 4 1 1 3 7 9 6 3 4 5 6 4 4 4 4 2 1 5 3 4 4
3 5 3 4 4 2 2 3 4 3 3 3 2 0 3 2 3 4 6 7 9 10 11 10 12 12 11 11 11 11 12 10 8 6 5 5 7 5 5 5 5 7 7
2 1 1 2 1 4 3 2 3 3 3 2 1 3 5 5 8 8 9 9 9 10 11 12 11 11 11 11 10 11 11 10 11 11 9 6 7 7 5 6 5 4 4
3 3 2 4 4 1 2 2 2 4 8 9 9 8 8 8 8 8 8 9 10 10 9 9 10 10 10 10 10 9 9 9 10 10 11 7 6 6 5 4 5 5 4
3 2 8 6 3 5 3 4 6 8 8 8 8 8 8 8 8 9 8 8 8 9 10 10 11 13 11 11 10 10 8 8 8 9 12 6 8 11 7 7 6 6 6
6 8 5 4 4 3 5 8 7 8 8 8 8 8 8 9 9 9 8 8 9 9 10 10 10 13 14 16 17 18 15 15 12 10 9 7 8 11 11 7 8 7 6
7 5 4 3 4 7 6 7 7 7 8 8 8 9 9 9 9 9 9 9 8 9 11 9 12 16 16 13 17 15 15 16 14 14 9 7 8 8 9 8 12 8 10
Wind_Direction
332 321 303 314 1 307 346 340 345 334 337 324 326 314 300 289 314 308 299 275 268 281 308 321 329 327 22 338 343 313 314 28 327 19 114 13 33 11 13 5 4 1 2
310 303 327 347 246 336 350 332 322 314 321 342 346 337 328 5 351 327 314 360 340 329 316 315 312 14 28 339 6 332 345 355 356 310 93 39 38 27 12 8 357 1 356
345 356 45 40 4 327 314 324 351 355 11 6 1 339 348 7 335 358 16 2 342 331 320 323 322 35 354 349 3 324 334 336 320 284 100 123 25 6 31 5 15 9 13
347 334 340 343 353 316 333 347 360 359 12 10 11 0 11 41 31 12 2 345 338 346 331 347 353 357 357 350 341 322 347 10 340 68 51 33 237 153 66 31 41 24 9
349 347 336 17 2 345 8 28 16 356 344 4 36 33 26 52 31 7 348 333 326 334 341 353 15 343 349 282 319 345 317 347 342 108 341 302 6 25 355 102 94 11 36
319 333 328 14 14 26 20 23 354 333 9 32 38 19 26 52 11 1 346 317 302 340 329 350 338 14 1 24 340 309 274 308 336 126 324 16 45 0 5 1 129 35 23
343 0 3 13 20 357 353 4 17 20 21 33 36 23 9 27 4 338 326 301 302 318 353 25 355 7 20 350 345 20 53 64 314 337 35 10 51 359 63 49 49 57 73
359 9 12 11 18 19 25 26 17 22 16 25 16 15 1 15 358 338 332 301 342 50 42 25 351 7 12 348 20 52 36 35 44 59 65 45 54 52 71 86 101 141 253
16 24 29 20 11 28 25 16 0 16 9 360 354 346 352 5 4 356 348 9 53 52 35 27 16 7 351 42 68 49 57 65 58 74 75 78 67 62 56 354 2 282 344
25 23 31 31 26 22 19 12 2 8 357 327 319 333 355 13 20 9 2 33 40 34 27 22 25 28 21 35 57 61 68 42 22 116 50 36 43 67 49 53 152 38 320
14 45 34 26 23 25 25 5 4 2 355 325 298 11 59 28 19 18 14 49 32 40 31 25 22 19 38 49 46 51 52 325 53 51 43 37 64 12 54 91 219 255 299
37 38 40 31 34 21 13 7 4 357 4 29 50 48 27 19 27 25 34 49 47 54 29 11 18 17 60 37 42 357 314 320 57 60 37 6 41 9 349 51 40 21 33
34 35 40 24 13 32 41 32 25 16 26 29 26 25 20 18 13 8 37 51 51 56 25 351 349 52 48 53 47 44 41 66 67 58 46 331 260 265 289 179 162 168 31
44 39 29 31 30 40 35 44 34 21 15 17 10 12 22 21 11 8 23 51 183 205 229 90 38 69 69 52 57 67 89 116 144 204 237 248 238 207 219 199 187 211 143
36 42 45 52 36 49 53 30 41 45 25 13 8 25 25 21 11 354 41 38 23 33 64 70 80 83 76 68 153 160 174 197 207 222 237 242 252 240 246 195 193 205 179
28 35 17 21 46 88 33 81 48 23 27 35 24 35 75 55 24 30 51 102 127 142 57 97 94 137 131 243 293 282 197 226 222 230 251 291 340 8 343 35 351 131 204
35 26 17 11 34 40 38 33 22 350 333 52 31 27 74 214 107 119 125 284 292 304 283 61 178 235 230 163 184 47 17 357 10 19 24 15 6 350 26 36 71 73 15
41 24 42 39 39 36 18 12 19 30 46 56 38 2 355 346 349 351 335 329 301 321 4 9 8 9 18 5 55 29 11 6 359 15 12 324 317 334 7 355 330 338 65
54 53 52 56 44 321 306 335 341 46 85 104 114 69 312 309 312 310 302 268 9 32 314 353 349 24 9 21 16 10 29 341 326 325 318 290 309 267 179 328 293 276 215
73 59 66 68 83 79 10 284 290 305 48 46 61 88 232 326 307 353 3 8 15 21 336 59 16 12 30 20 9 357 18 13 349 334 320 338 327 283 216 257 230 346 11
49 77 89 109 67 63 302 9 21 31 42 51 57 187 257 45 25 21 20 38 36 31 20 26 30 35 32 24 19 17 15 7 1 350 348 2 342 2 11 27 51 37 9
121 82 40 58 245 259 322 347 46 31 34 60 64 41 26 41 50 45 42 35 41 48 36 29 33 24 28 21 27 19 11 1 355 354 343 3 5 4 17 20 15 69 41
218 237 246 4 15 0 121 164 136 83 57 53 53 55 60 47 46 52 54 50 41 36 44 49 43 32 19 22 15 25 11 348 336 342 337 1 7 357 7 12 35 9 22
86 129 70 70 23 14 41 62 71 54 63 65 60 56 52 48 51 54 50 54 65 59 47 33 29 40 25 18 10 4 10 347 331 337 340 5 14 360 9 12 4 35 16
103 80 73 66 326 31 37 61 60 55 53 53 55 56 55 50 47 41 37 50 46 46 59 55 40 19 26 18 10 2 350 349 349 342 342 2 25 13 1 8 5 5 7
85 89 101 27 337 49 54 58 56 63 63 55 47 41 42 48 46 42 37 32 45 48 45 47 46 34 19 16 5 351 352 350 348 340 331 20 24 8 349 5 4 11 354